Location: A�t �Alizem
(31.2076°N, 8.7872°W)
Time: 15:43:04
(UTC+00:00)

deb Explorer IX - Pass Details

Date: 01 July 2021
Orbit: 542 x 1233 km, 38.9° (Epoch: 22 July)

Event Time Altitude Azimuth Distance (km) Brightness Sun altitude
Exits shadow 03:49:28 23° 185° (S) 1,856 ? -19.1°
Drops below altitude 10° 03:52:49 10° 160° (SSE) 2,742 ? -18.6°
Sets 03:56:06 0° 149° (SSE) 3,812 ? -18.1°
